{"data":{"norad_id":67580,"intl_designator":"2026-016V","name":"STARLINK-36612","alt_names":[],"object_type":"PAYLOAD","status":"ACTIVE","operator":null,"country":"US","launch_date":"2026-01-25","launch_site_code":"AFWTR","launch_vehicle":null,"mission":null,"orbit_class":"UNKNOWN","rcs_meters":null,"size_class":null,"mass_kg":null,"dimensions":null,"purposes":["comms"],"wikipedia_slug":null,"has_3d_model":false,"image_url":null,"decayed_at":null,"tle_current":{"epoch":"2026-05-25T02:55:26.418720Z","epoch_age_seconds":57913,"freshness":"FRESH","line1":"1 67580U 26016V   26145.12183355  .00016543  00000+0  51349-3 0  9990","line2":"2 67580  97.2838 205.5461 0001106  86.9813 273.1556 15.33453240 18582","mean_motion":15.3345324,"eccentricity":0.0001106,"inclination_deg":97.2838,"raan_deg":205.5461,"arg_perigee_deg":86.9813,"mean_anomaly_deg":273.1556,"bstar":0.00051349,"rev_number":1858,"period_min":93.905700052517,"perigee_km":464.76174982946,"apogee_km":466.27556646104,"semimajor_km":6843.6556581452,"source":"CELESTRAK","updated_at":"2026-05-25T13:38:21.617356Z"}}}